, AZ

(GMT )
Fort Huachuca

Weather History for KALK - October, 2012

Change the Weather History Date:

Thursday, October 11, 2012

  Actual Average Record
Temperature  
Mean Temperature 67 °F -  
Max Temperature 79 °F - - ()
Min Temperature 55 °F - - ()
Cooling Degree Days 2    
Growing Degree Days 17 (Base 50)    
Moisture  
Dew Point 41 °F    
Average Humidity 41    
Maximum Humidity 59    
Minimum Humidity 22    
Precipitation  
Precipitation 0.00 in - - ()
Sea Level Pressure  
Sea Level Pressure 29.85 in    
Wind  
Wind Speed 7 mph (SW)    
Max Wind Speed 26 mph    
Max Gust Speed 34 mph    
Averages and records for this station are not official NWS values.
T = Trace of Precipitation, MM = Missing Value Source: NWS Daily Summary

Daily Weather History Graph

Daily Weather History Graph

Search for Another Location

Airport or City:

Trip Planner

Search our weather history database for the weather conditions in past years. The results will help you decide how hot, cold, wet, or windy it might be!

Date:

Astronomy

Oct. 11, 2012 Rise Set
Actual Time 6:22 AM MST 5:53 PM MST
Civil Twilight 5:58 AM MST 6:18 PM MST
Nautical Twilight 5:29 AM MST 6:46 PM MST
Astronomical Twilight 5:01 AM MST 7:14 PM MST
Moon 2:18 AM MST (10/11) 3:19 PM MST (10/11)
Length of Visible Light 12h 20m
Length of Day
11h 31m
Waning Crescent, 17% of the Moon is Illuminated
Oct 11
Waning Crescent
Oct 15
New
Oct 21
First Quarter
Oct 29
Full
Nov 6
Last Quarter

Hourly Weather History & Observations

Time (MST) Temp. Dew Point Humidity Pressure Visibility Wind Dir Wind Speed Gust Speed Precip Events Conditions
12:56 AM 55.0 °F 41.0 °F 59% 29.84 in - SW 4.6 mph - N/A   Clear
1:56 AM 57.9 °F 39.9 °F 51% 29.83 in - SW 3.5 mph - N/A   Clear
2:56 AM 62.1 °F 41.0 °F 46% 29.80 in - Calm Calm - 0.00 in Rain Light Rain
3:56 AM 62.1 °F 41.0 °F 46% 29.79 in - ENE 3.5 mph - 0.00 in   Overcast
5:56 AM 57.0 °F 42.1 °F 57% 29.84 in - Calm Calm - N/A   Mostly Cloudy
6:56 AM 59.0 °F 42.1 °F 53% 29.85 in - Calm Calm - N/A   Partly Cloudy
8:56 AM 68.0 °F 44.1 °F 42% 29.86 in - North 4.6 mph - N/A   Mostly Cloudy
9:56 AM 73.9 °F 37.0 °F 26% 29.84 in - Variable 5.8 mph - N/A   Mostly Cloudy
10:21 AM 73.4 °F 33.8 °F 23% 30.10 in - SW 12.7 mph - N/A   Scattered Clouds
10:56 AM 75.9 °F 34.0 °F 22% 29.84 in - SSW 10.4 mph - N/A   Clear
11:56 AM 77.0 °F 36.0 °F 23% 30.07 in - South 11.5 mph 17.3 mph N/A   Partly Cloudy
1:56 PM 79.0 °F 39.0 °F 24% 29.76 in - SW 26.5 mph 34.5 mph N/A   Clear
2:56 PM 78.1 °F 41.0 °F 27% 29.77 in - SW 24.2 mph 31.1 mph N/A   Partly Cloudy
3:56 PM 73.9 °F 43.0 °F 33% 29.78 in - SW 18.4 mph 24.2 mph N/A   Mostly Cloudy
4:56 PM 72.0 °F 41.0 °F 33% 29.79 in - SSW 17.3 mph - N/A   Unknown
5:56 PM 69.1 °F 42.1 °F 38% 29.81 in - SSW 10.4 mph - N/A   Clear
6:56 PM 68.0 °F 43.0 °F 40% 29.82 in - SSW 12.7 mph - N/A   Clear
7:56 PM 66.9 °F 44.1 °F 44% 30.06 in - SSW 6.9 mph - N/A   Clear
9:56 PM 66.0 °F 48.0 °F 52% 29.82 in - SW 8.1 mph 21.9 mph N/A   Partly Cloudy
10:56 PM 64.0 °F 48.0 °F 56% 29.82 in - SW 9.2 mph - N/A   Mostly Cloudy
11:56 PM 63.0 °F 48.0 °F 58% 29.83 in - WSW 11.5 mph - N/A   Mostly Cloudy